Time,TemperatureF,DewpointF,PressureIn,WindDirection,WindDirectionDegrees,WindSpeedMPH,WindSpeedGustMPH,Humidity,HourlyPrecipIn,Conditions,Clouds,dailyrainin,SoftwareType,DateUTC
2013-01-23 00:00:00,16.3,-0.8,30.24,West,270,13.0,25.0,46,0.00,,---,0.00,VWS V14.01,2013-01-23 05:00:00,
2013-01-23 00:30:00,15.8,-2.2,30.25,West,270,13.0,24.0,44,0.00,,---,0.00,VWS V14.01,2013-01-23 05:30:00,
2013-01-23 01:00:00,15.6,-2.0,30.25,West,270,13.0,22.0,45,0.00,,---,0.00,VWS V14.01,2013-01-23 06:00:00,
2013-01-23 01:30:00,15.4,-2.1,30.26,West,270,13.0,27.0,45,0.00,,---,0.00,VWS V14.01,2013-01-23 06:30:00,
2013-01-23 02:00:00,15.1,-2.0,30.27,West,270,12.0,23.0,46,0.00,,---,0.00,VWS V14.01,2013-01-23 07:00:00,
2013-01-23 02:30:00,14.6,-0.6,30.27,West,270,10.0,18.0,50,0.00,,---,0.00,VWS V14.01,2013-01-23 07:30:00,
2013-01-23 03:00:00,14.7,0.7,30.27,West,270,10.0,18.0,53,0.00,,---,0.00,VWS V14.01,2013-01-23 08:00:00,
2013-01-23 03:30:00,14.5,0.5,30.27,West,270,11.0,21.0,53,0.00,,---,0.00,VWS V14.01,2013-01-23 08:30:00,
2013-01-23 04:00:00,14.4,-0.8,30.27,West,270,12.0,20.0,50,0.00,,---,0.00,VWS V14.01,2013-01-23 09:00:00,
2013-01-23 04:30:00,14.2,-0.2,30.27,West,270,12.0,21.0,52,0.00,,---,0.00,VWS V14.01,2013-01-23 09:30:00,
2013-01-23 05:00:00,14.1,0.9,30.27,West,270,11.0,19.0,55,0.00,,---,0.00,VWS V14.01,2013-01-23 10:00:00,
2013-01-23 05:30:00,14.3,1.1,30.27,West,270,11.0,19.0,55,0.00,,---,0.00,VWS V14.01,2013-01-23 10:30:00,
2013-01-23 06:00:00,14.2,1.0,30.29,West,270,12.0,23.0,55,0.00,,---,0.00,VWS V14.01,2013-01-23 11:00:00,
2013-01-23 06:30:00,14.1,2.0,30.29,West,270,11.0,20.0,58,0.00,,---,0.00,VWS V14.01,2013-01-23 11:30:00,
2013-01-23 07:00:00,14.2,2.5,30.30,West,270,11.0,20.0,59,0.00,,---,0.00,VWS V14.01,2013-01-23 12:00:00,
2013-01-23 07:30:00,14.4,3.1,30.30,West,270,11.0,19.0,60,0.00,,---,0.00,VWS V14.01,2013-01-23 12:30:00,
2013-01-23 08:00:00,14.8,2.7,30.30,West,270,12.0,21.0,58,0.00,,---,0.00,VWS V14.01,2013-01-23 13:00:00,
2013-01-23 08:30:00,15.0,2.5,30.31,West,270,12.0,20.0,57,0.00,,---,0.00,VWS V14.01,2013-01-23 13:30:00,
2013-01-23 08:58:00,15.8,1.3,30.31,WNW,287,16.0,16.0,52,0.00,,---,0.00,VWS V14.01,2013-01-23 13:58:00,
2013-01-23 09:00:00,15.9,3.0,30.31,WNW,282,7.0,19.0,56,0.00,,---,0.00,VWS V14.01,2013-01-23 14:00:00,
2013-01-23 09:03:00,15.9,2.2,30.31,West,266,12.0,17.0,54,0.00,,---,0.00,VWS V14.01,2013-01-23 14:03:00,
2013-01-23 09:08:00,16.1,2.4,30.31,WSW,252,14.0,21.0,54,0.00,,---,0.00,VWS V14.01,2013-01-23 14:08:00,
2013-01-23 09:13:00,16.2,2.1,30.31,West,265,14.0,21.0,53,0.00,,---,0.00,VWS V14.01,2013-01-23 14:13:00,
2013-01-23 09:14:00,16.2,2.1,30.31,West,264,10.0,21.0,53,0.00,,---,0.00,VWS V14.01,2013-01-23 14:14:00,
2013-01-23 09:18:00,16.3,2.2,30.31,NNW,344,12.0,21.0,53,0.00,,---,0.00,VWS V14.01,2013-01-23 14:18:00,
2013-01-23 09:19:00,16.2,1.7,30.31,WNW,285,16.0,21.0,52,0.00,,---,0.00,VWS V14.01,2013-01-23 14:19:00,
2013-01-23 09:23:00,16.4,1.9,30.31,West,264,11.0,21.0,52,0.00,,---,0.00,VWS V14.01,2013-01-23 14:23:00,
2013-01-23 09:24:00,16.4,1.9,30.31,WSW,250,14.0,21.0,52,0.00,,---,0.00,VWS V14.01,2013-01-23 14:24:00,
2013-01-23 09:29:00,16.6,1.6,30.31,WNW,291,11.0,21.0,51,0.00,,---,0.00,VWS V14.01,2013-01-23 14:29:00,
2013-01-23 09:30:00,16.8,2.7,30.31,WSW,251,11.0,21.0,53,0.00,,---,0.00,VWS V14.01,2013-01-23 14:30:00,
2013-01-23 09:34:00,16.6,1.6,30.31,NW,305,15.0,20.0,51,0.00,,---,0.00,VWS V14.01,2013-01-23 14:34:00,
2013-01-23 09:35:00,16.7,1.7,30.31,West,276,10.0,20.0,51,0.00,,---,0.00,VWS V14.01,2013-01-23 14:35:00,
2013-01-23 09:39:00,17.0,2.0,30.31,WSW,248,14.0,20.0,51,0.00,,---,0.00,VWS V14.01,2013-01-23 14:39:00,
2013-01-23 09:40:00,17.1,2.5,30.31,WNW,288,12.0,20.0,52,0.00,,---,0.00,VWS V14.01,2013-01-23 14:40:00,
2013-01-23 09:41:00,17.2,2.2,30.31,NNW,340,8.0,20.0,51,0.00,,---,0.00,VWS V14.01,2013-01-23 14:41:00,
2013-01-23 09:44:00,17.2,1.8,30.31,West,276,16.0,20.0,50,0.00,,---,0.00,VWS V14.01,2013-01-23 14:44:00,
2013-01-23 09:45:00,17.2,1.8,30.31,West,281,8.0,20.0,50,0.00,,---,0.00,VWS V14.01,2013-01-23 14:45:00,
2013-01-23 09:46:00,17.1,1.2,30.31,WNW,290,10.0,20.0,49,0.00,,---,0.00,VWS V14.01,2013-01-23 14:46:00,
2013-01-23 09:49:00,16.9,1.5,30.31,West,264,14.0,20.0,50,0.00,,---,0.00,VWS V14.01,2013-01-23 14:49:00,
2013-01-23 09:50:00,17.0,2.0,30.31,NW,318,12.0,20.0,51,0.00,,---,0.00,VWS V14.01,2013-01-23 14:50:00,
2013-01-23 09:51:00,17.1,2.1,30.31,WSW,257,17.0,20.0,51,0.00,,---,0.00,VWS V14.01,2013-01-23 14:51:00,
2013-01-23 09:54:00,17.3,1.4,30.31,NW,314,9.0,22.0,49,0.00,,---,0.00,VWS V14.01,2013-01-23 14:54:00,
2013-01-23 09:55:00,17.4,2.0,30.31,WNW,294,14.0,22.0,50,0.00,,---,0.00,VWS V14.01,2013-01-23 14:55:00,
2013-01-23 09:56:00,17.5,2.0,30.31,WSW,255,9.0,22.0,50,0.00,,---,0.00,VWS V14.01,2013-01-23 14:56:00,
2013-01-23 09:59:00,17.6,2.1,30.31,WNW,282,11.0,22.0,50,0.00,,---,0.00,VWS V14.01,2013-01-23 14:59:00,
2013-01-23 10:00:00,17.8,2.8,30.32,NW,304,11.0,16.0,51,0.00,,---,0.00,VWS V14.01,2013-01-23 15:00:00,
2013-01-23 10:01:00,17.8,1.9,30.32,WNW,296,14.0,16.0,49,0.00,,---,0.00,VWS V14.01,2013-01-23 15:01:00,
2013-01-23 10:04:00,18.0,2.5,30.31,West,281,8.0,16.0,50,0.00,,---,0.00,VWS V14.01,2013-01-23 15:04:00,
2013-01-23 10:05:00,18.0,2.9,30.32,West,279,10.0,17.0,51,0.00,,---,0.00,VWS V14.01,2013-01-23 15:05:00,
2013-01-23 10:06:00,18.1,2.6,30.32,West,270,11.0,17.0,50,0.00,,---,0.00,VWS V14.01,2013-01-23 15:06:00,
2013-01-23 10:09:00,18.1,2.2,30.32,WNW,291,14.0,18.0,49,0.00,,---,0.00,VWS V14.01,2013-01-23 15:09:00,
2013-01-23 10:11:00,18.1,2.2,30.32,WSW,250,12.0,18.0,49,0.00,,---,0.00,VWS V14.01,2013-01-23 15:11:00,
2013-01-23 10:15:00,17.8,1.5,30.32,WSW,256,16.0,19.0,48,0.00,,---,0.00,VWS V14.01,2013-01-23 15:15:00,
2013-01-23 10:16:00,17.9,2.0,30.32,WNW,290,8.0,19.0,49,0.00,,---,0.00,VWS V14.01,2013-01-23 15:16:00,
2013-01-23 10:17:00,18.0,2.1,30.32,WNW,288,7.0,19.0,49,0.00,,---,0.00,VWS V14.01,2013-01-23 15:17:00,
2013-01-23 10:20:00,17.8,1.0,30.32,WSW,249,14.0,20.0,47,0.00,,---,0.00,VWS V14.01,2013-01-23 15:20:00,
2013-01-23 10:21:00,17.7,0.9,30.31,West,266,13.0,20.0,47,0.00,,---,0.00,VWS V14.01,2013-01-23 15:21:00,
2013-01-23 10:22:00,17.5,0.7,30.31,West,276,9.0,20.0,47,0.00,,---,0.00,VWS V14.01,2013-01-23 15:22:00,
2013-01-23 10:26:00,18.0,1.6,30.31,West,263,12.0,20.0,48,0.00,,---,0.00,VWS V14.01,2013-01-23 15:26:00,
2013-01-23 10:27:00,18.0,1.2,30.31,West,269,15.0,20.0,47,0.00,,---,0.00,VWS V14.01,2013-01-23 15:27:00,
2013-01-23 10:30:00,18.0,1.2,30.31,West,270,12.0,21.0,47,0.00,,---,0.00,VWS V14.01,2013-01-23 15:30:00,
2013-01-23 10:31:00,18.0,0.7,30.31,WNW,290,10.0,12.0,46,0.00,,---,0.00,VWS V14.01,2013-01-23 15:31:00,
2013-01-23 10:32:00,18.1,1.7,30.31,West,271,12.0,15.0,48,0.00,,---,0.00,VWS V14.01,2013-01-23 15:32:00,
2013-01-23 10:36:00,18.7,1.8,30.31,West,264,17.0,18.0,47,0.00,,---,0.00,VWS V14.01,2013-01-23 15:36:00,
2013-01-23 10:37:00,18.6,1.3,30.31,WNW,292,13.0,20.0,46,0.00,,---,0.00,VWS V14.01,2013-01-23 15:37:00,
2013-01-23 10:42:00,18.7,0.9,30.31,West,267,8.0,20.0,45,0.00,,---,0.00,VWS V14.01,2013-01-23 15:42:00,
2013-01-23 10:43:00,18.6,0.8,30.30,WNW,298,6.0,20.0,45,0.00,,---,0.00,VWS V14.01,2013-01-23 15:43:00,
2013-01-23 10:47:00,18.9,1.1,30.30,West,261,15.0,20.0,45,0.00,,---,0.00,VWS V14.01,2013-01-23 15:47:00,
2013-01-23 10:48:00,18.8,1.0,30.30,NW,304,11.0,20.0,45,0.00,,---,0.00,VWS V14.01,2013-01-23 15:48:00,
2013-01-23 10:52:00,19.0,1.6,30.30,WNW,287,13.0,20.0,46,0.00,,---,0.00,VWS V14.01,2013-01-23 15:52:00,
2013-01-23 10:53:00,19.1,1.7,30.30,WSW,245,10.0,20.0,46,0.00,,---,0.00,VWS V14.01,2013-01-23 15:53:00,
2013-01-23 10:57:00,19.2,1.4,30.30,WSW,255,7.0,20.0,45,0.00,,---,0.00,VWS V14.01,2013-01-23 15:57:00,
2013-01-23 10:58:00,19.3,1.5,30.30,NW,321,8.0,20.0,45,0.00,,---,0.00,VWS V14.01,2013-01-23 15:58:00,
2013-01-23 11:00:00,19.2,1.4,30.29,West,270,9.0,20.0,45,0.00,,---,0.00,VWS V14.01,2013-01-23 16:00:00,
2013-01-23 11:03:00,19.6,2.2,30.29,SSW,192,12.0,17.0,46,0.00,,---,0.00,VWS V14.01,2013-01-23 16:03:00,
2013-01-23 11:08:00,19.3,1.5,30.29,West,261,8.0,22.0,45,0.00,,---,0.00,VWS V14.01,2013-01-23 16:08:00,
2013-01-23 11:13:00,19.7,0.8,30.29,WSW,255,13.0,22.0,43,0.00,,---,0.00,VWS V14.01,2013-01-23 16:13:00,
2013-01-23 11:14:00,19.7,0.8,30.29,West,263,10.0,22.0,43,0.00,,---,0.00,VWS V14.01,2013-01-23 16:14:00,
2013-01-23 11:18:00,19.8,0.9,30.28,WSW,250,5.0,22.0,43,0.00,,---,0.00,VWS V14.01,2013-01-23 16:18:00,
2013-01-23 11:19:00,19.8,1.4,30.28,West,259,8.0,22.0,44,0.00,,---,0.00,VWS V14.01,2013-01-23 16:19:00,
2013-01-23 11:23:00,20.8,1.8,30.28,SW,226,8.0,22.0,43,0.00,,---,0.00,VWS V14.01,2013-01-23 16:23:00,
2013-01-23 11:24:00,20.8,1.8,30.28,SW,228,12.0,22.0,43,0.00,,---,0.00,VWS V14.01,2013-01-23 16:24:00,
2013-01-23 11:29:00,20.5,1.1,30.28,WSW,255,8.0,22.0,42,0.00,,---,0.00,VWS V14.01,2013-01-23 16:29:00,
2013-01-23 11:30:00,20.7,1.8,30.28,West,270,10.0,22.0,43,0.00,,---,0.00,VWS V14.01,2013-01-23 16:30:00,
2013-01-23 11:34:00,20.9,0.9,30.27,WNW,296,14.0,19.0,41,0.00,,---,0.00,VWS V14.01,2013-01-23 16:34:00,
2013-01-23 11:39:00,21.2,1.7,30.27,WSW,256,16.0,23.0,42,0.00,,---,0.00,VWS V14.01,2013-01-23 16:39:00,
2013-01-23 11:44:00,21.0,0.5,30.27,West,277,19.0,23.0,40,0.00,,---,0.00,VWS V14.01,2013-01-23 16:44:00,
2013-01-23 11:45:00,20.9,-0.2,30.27,West,266,16.0,23.0,39,0.00,,---,0.00,VWS V14.01,2013-01-23 16:45:00,
2013-01-23 11:49:00,20.7,0.2,30.26,WNW,283,13.0,23.0,40,0.00,,---,0.00,VWS V14.01,2013-01-23 16:49:00,
2013-01-23 11:50:00,20.6,-0.4,30.26,WNW,294,9.0,23.0,39,0.00,,---,0.00,VWS V14.01,2013-01-23 16:50:00,
2013-01-23 11:54:00,21.0,0.5,30.26,NNW,347,14.0,23.0,40,0.00,,---,0.00,VWS V14.01,2013-01-23 16:54:00,
2013-01-23 11:55:00,20.9,0.4,30.26,WNW,284,12.0,23.0,40,0.00,,---,0.00,VWS V14.01,2013-01-23 16:55:00,
2013-01-23 11:56:00,21.0,-0.1,30.26,WSW,255,8.0,23.0,39,0.00,,---,0.00,VWS V14.01,2013-01-23 16:56:00,
2013-01-23 12:00:00,21.2,0.1,30.25,NW,306,6.0,23.0,39,0.00,,---,0.00,VWS V14.01,2013-01-23 17:00:00,
2013-01-23 12:01:00,21.2,1.2,30.25,West,266,10.0,10.0,41,0.00,,---,0.00,VWS V14.01,2013-01-23 17:01:00,
2013-01-23 12:05:00,20.7,-0.3,30.25,SSW,203,11.0,18.0,39,0.00,,---,0.00,VWS V14.01,2013-01-23 17:05:00,
2013-01-23 12:06:00,20.6,-0.4,30.25,SW,227,14.0,18.0,39,0.00,,---,0.00,VWS V14.01,2013-01-23 17:06:00,
2013-01-23 12:10:00,20.7,-0.3,30.25,WSW,247,6.0,18.0,39,0.00,,---,0.00,VWS V14.01,2013-01-23 17:10:00,
2013-01-23 12:11:00,20.6,-1.0,30.24,West,278,6.0,18.0,38,0.00,,---,0.00,VWS V14.01,2013-01-23 17:11:00,
2013-01-23 12:12:00,20.6,-1.0,30.24,WSW,243,11.0,18.0,38,0.00,,---,0.00,VWS V14.01,2013-01-23 17:12:00,
2013-01-23 12:15:00,20.7,-0.3,30.24,WSW,239,17.0,22.0,39,0.00,,---,0.00,VWS V14.01,2013-01-23 17:15:00,
2013-01-23 12:16:00,20.6,-0.4,30.24,West,260,16.0,22.0,39,0.00,,---,0.00,VWS V14.01,2013-01-23 17:16:00,
2013-01-23 12:17:00,20.3,-1.2,30.24,West,280,16.0,27.0,38,0.00,,---,0.00,VWS V14.01,2013-01-23 17:17:00,
2013-01-23 12:20:00,20.1,0.2,30.24,West,280,11.0,27.0,41,0.00,,---,0.00,VWS V14.01,2013-01-23 17:20:00,
2013-01-23 12:21:00,20.0,0.1,30.24,West,275,8.0,27.0,41,0.00,,---,0.00,VWS V14.01,2013-01-23 17:21:00,
2013-01-23 12:22:00,20.1,0.2,30.24,WNW,283,7.0,27.0,41,0.00,,---,0.00,VWS V14.01,2013-01-23 17:22:00,
2013-01-23 12:25:00,20.3,-0.7,30.23,NW,307,5.0,27.0,39,0.00,,---,0.00,VWS V14.01,2013-01-23 17:25:00,
2013-01-23 12:26:00,20.4,-0.6,30.24,WSW,250,12.0,27.0,39,0.00,,---,0.00,VWS V14.01,2013-01-23 17:26:00,
2013-01-23 12:27:00,20.3,-0.2,30.24,WSW,245,14.0,27.0,40,0.00,,---,0.00,VWS V14.01,2013-01-23 17:27:00,
2013-01-23 12:28:00,20.5,0.6,30.23,SW,223,10.0,27.0,41,0.00,,---,0.00,VWS V14.01,2013-01-23 17:28:00,
2013-01-23 12:30:00,20.5,0.0,30.23,West,270,12.0,27.0,40,0.00,,---,0.00,VWS V14.01,2013-01-23 17:30:00,
2013-01-23 12:31:00,20.5,-0.5,30.23,West,276,12.0,16.0,39,0.00,,---,0.00,VWS V14.01,2013-01-23 17:31:00,
2013-01-23 12:32:00,20.4,-0.6,30.23,West,263,12.0,17.0,39,0.00,,---,0.00,VWS V14.01,2013-01-23 17:32:00,
2013-01-23 12:34:00,20.2,-0.8,30.23,WSW,250,7.0,18.0,39,0.00,,---,0.00,VWS V14.01,2013-01-23 17:34:00,
2013-01-23 12:36:00,20.4,0.5,30.23,WNW,293,13.0,18.0,41,0.00,,---,0.00,VWS V14.01,2013-01-23 17:36:00,
2013-01-23 12:37:00,20.5,0.6,30.23,West,266,12.0,18.0,41,0.00,,---,0.00,VWS V14.01,2013-01-23 17:37:00,
2013-01-23 12:39:00,20.5,-0.5,30.23,WSW,243,11.0,18.0,39,0.00,,---,0.00,VWS V14.01,2013-01-23 17:39:00,
2013-01-23 12:41:00,20.4,-0.6,30.23,NW,307,12.0,19.0,39,0.00,,---,0.00,VWS V14.01,2013-01-23 17:41:00,
2013-01-23 12:42:00,20.3,-1.8,30.23,WSW,255,12.0,19.0,37,0.00,,---,0.00,VWS V14.01,2013-01-23 17:42:00,
2013-01-23 12:44:00,20.3,-0.2,30.22,West,279,16.0,20.0,40,0.00,,---,0.00,VWS V14.01,2013-01-23 17:44:00,
2013-01-23 12:46:00,20.5,0.0,30.22,West,274,13.0,20.0,40,0.00,,---,0.00,VWS V14.01,2013-01-23 17:46:00,
2013-01-23 12:47:00,20.5,0.0,30.22,WNW,292,12.0,20.0,40,0.00,,---,0.00,VWS V14.01,2013-01-23 17:47:00,
2013-01-23 12:48:00,20.6,0.1,30.22,SW,227,8.0,20.0,40,0.00,,---,0.00,VWS V14.01,2013-01-23 17:48:00,
2013-01-23 12:49:00,20.9,1.4,30.22,West,269,17.0,23.0,42,0.00,,---,0.00,VWS V14.01,2013-01-23 17:49:00,
2013-01-23 12:52:00,21.1,0.6,30.22,WSW,252,9.0,23.0,40,0.00,,---,0.00,VWS V14.01,2013-01-23 17:52:00,
2013-01-23 12:53:00,21.2,0.1,30.22,North,356,12.0,23.0,39,0.00,,---,0.00,VWS V14.01,2013-01-23 17:53:00,
2013-01-23 12:55:00,21.2,0.1,30.22,WNW,287,14.0,23.0,39,0.00,,---,0.00,VWS V14.01,2013-01-23 17:55:00,
2013-01-23 12:57:00,21.2,-1.0,30.21,WSW,256,13.0,23.0,37,0.00,,---,0.00,VWS V14.01,2013-01-23 17:57:00,
2013-01-23 12:59:00,21.1,-1.7,30.21,WNW,298,9.0,23.0,36,0.00,,---,0.00,VWS V14.01,2013-01-23 17:59:00,
2013-01-23 13:00:00,21.1,-1.1,30.21,West,278,10.0,23.0,37,0.00,,---,0.00,VWS V14.01,2013-01-23 18:00:00,
2013-01-23 13:02:00,20.9,-0.7,30.21,WSW,252,9.0,14.0,38,0.00,,---,0.00,VWS V14.01,2013-01-23 18:02:00,
2013-01-23 13:03:00,21.0,-0.6,30.21,WSW,248,6.0,14.0,38,0.00,,---,0.00,VWS V14.01,2013-01-23 18:03:00,
2013-01-23 13:04:00,21.0,-0.1,30.21,West,271,14.0,14.0,39,0.00,,---,0.00,VWS V14.01,2013-01-23 18:04:00,
2013-01-23 13:05:00,21.0,-0.1,30.21,North,349,9.0,14.0,39,0.00,,---,0.00,VWS V14.01,2013-01-23 18:05:00,
2013-01-23 13:07:00,21.0,-1.2,30.21,West,277,14.0,22.0,37,0.00,,---,0.00,VWS V14.01,2013-01-23 18:07:00,
2013-01-23 13:08:00,21.0,-1.8,30.21,NW,309,12.0,22.0,36,0.00,,---,0.00,VWS V14.01,2013-01-23 18:08:00,
2013-01-23 13:09:00,21.0,-1.2,30.20,WSW,249,11.0,22.0,37,0.00,,---,0.00,VWS V14.01,2013-01-23 18:09:00,
2013-01-23 13:10:00,21.1,-0.5,30.20,NNW,328,12.0,22.0,38,0.00,,---,0.00,VWS V14.01,2013-01-23 18:10:00,
2013-01-23 13:12:00,21.1,-0.5,30.20,SW,225,16.0,22.0,38,0.00,,---,0.00,VWS V14.01,2013-01-23 18:12:00,
2013-01-23 13:13:00,21.1,-0.5,30.20,West,264,6.0,22.0,38,0.00,,---,0.00,VWS V14.01,2013-01-23 18:13:00,
2013-01-23 13:15:00,21.3,-0.3,30.20,WNW,300,11.0,22.0,38,0.00,,---,0.00,VWS V14.01,2013-01-23 18:15:00,
2013-01-23 13:18:00,21.5,0.4,30.20,West,262,13.0,22.0,39,0.00,,---,0.00,VWS V14.01,2013-01-23 18:18:00,
2013-01-23 13:20:00,21.4,0.3,30.20,WSW,257,21.0,22.0,39,0.00,,---,0.00,VWS V14.01,2013-01-23 18:20:00,
2013-01-23 13:23:00,21.8,1.2,30.20,NNW,335,9.0,22.0,40,0.00,,---,0.00,VWS V14.01,2013-01-23 18:23:00,
2013-01-23 13:24:00,21.9,0.2,30.20,NW,309,6.0,22.0,38,0.00,,---,0.00,VWS V14.01,2013-01-23 18:24:00,
2013-01-23 13:25:00,22.1,0.4,30.20,WNW,286,5.0,22.0,38,0.00,,---,0.00,VWS V14.01,2013-01-23 18:25:00,
2013-01-23 13:28:00,22.2,2.1,30.20,WNW,292,11.0,22.0,41,0.00,,---,0.00,VWS V14.01,2013-01-23 18:28:00,
2013-01-23 13:29:00,22.2,1.0,30.20,West,262,15.0,22.0,39,0.00,,---,0.00,VWS V14.01,2013-01-23 18:29:00,
2013-01-23 13:30:00,22.1,1.5,30.20,WSW,248,10.0,19.0,40,0.00,,---,0.00,VWS V14.01,2013-01-23 18:30:00,
2013-01-23 13:31:00,22.1,1.5,30.20,WSW,246,18.0,19.0,40,0.00,,---,0.00,VWS V14.01,2013-01-23 18:31:00,
2013-01-23 13:33:00,21.9,0.8,30.20,NW,304,11.0,19.0,39,0.00,,---,0.00,VWS V14.01,2013-01-23 18:33:00,
2013-01-23 13:34:00,21.9,0.8,30.20,West,262,12.0,19.0,39,0.00,,---,0.00,VWS V14.01,2013-01-23 18:34:00,
2013-01-23 13:36:00,21.8,0.7,30.20,West,279,8.0,19.0,39,0.00,,---,0.00,VWS V14.01,2013-01-23 18:36:00,
2013-01-23 13:38:00,21.5,0.9,30.20,WNW,297,12.0,19.0,40,0.00,,---,0.00,VWS V14.01,2013-01-23 18:38:00,
2013-01-23 13:40:00,21.4,0.8,30.20,NW,314,9.0,19.0,40,0.00,,---,0.00,VWS V14.01,2013-01-23 18:40:00,
2013-01-23 13:41:00,21.4,0.8,30.20,West,259,14.0,19.0,40,0.00,,---,0.00,VWS V14.01,2013-01-23 18:41:00,
2013-01-23 13:44:00,21.6,1.5,30.20,WSW,257,19.0,23.0,41,0.00,,---,0.00,VWS V14.01,2013-01-23 18:44:00,
2013-01-23 13:45:00,21.5,0.9,30.20,WNW,294,11.0,23.0,40,0.00,,---,0.00,VWS V14.01,2013-01-23 18:45:00,
2013-01-23 13:46:00,21.4,0.8,30.20,WNW,287,11.0,23.0,40,0.00,,---,0.00,VWS V14.01,2013-01-23 18:46:00,
2013-01-23 13:47:00,21.5,0.9,30.20,NW,315,7.0,23.0,40,0.00,,---,0.00,VWS V14.01,2013-01-23 18:47:00,
2013-01-23 13:50:00,21.5,0.4,30.20,WNW,282,10.0,23.0,39,0.00,,---,0.00,VWS V14.01,2013-01-23 18:50:00,
2013-01-23 13:51:00,21.6,0.5,30.20,WSW,244,12.0,23.0,39,0.00,,---,0.00,VWS V14.01,2013-01-23 18:51:00,
2013-01-23 13:52:00,21.5,-0.2,30.20,WNW,290,11.0,23.0,38,0.00,,---,0.00,VWS V14.01,2013-01-23 18:52:00,
2013-01-23 13:55:00,21.5,-0.2,30.19,WNW,289,8.0,23.0,38,0.00,,---,0.00,VWS V14.01,2013-01-23 18:55:00,
2013-01-23 13:56:00,21.7,0.6,30.20,SW,230,14.0,23.0,39,0.00,,---,0.00,VWS V14.01,2013-01-23 18:56:00,
2013-01-23 13:57:00,21.7,0.6,30.20,WSW,239,10.0,23.0,39,0.00,,---,0.00,VWS V14.01,2013-01-23 18:57:00,
2013-01-23 14:00:00,21.7,0.6,30.20,WSW,247,12.0,23.0,39,0.00,,---,0.00,VWS V14.01,2013-01-23 19:00:00,
2013-01-23 14:02:00,21.5,0.9,30.19,WSW,253,12.0,16.0,40,0.00,,---,0.00,VWS V14.01,2013-01-23 19:02:00,
2013-01-23 14:05:00,21.4,0.8,30.19,NW,306,6.0,21.0,40,0.00,,---,0.00,VWS V14.01,2013-01-23 19:05:00,
2013-01-23 14:06:00,21.6,2.1,30.19,WNW,300,7.0,21.0,42,0.00,,---,0.00,VWS V14.01,2013-01-23 19:06:00,
2013-01-23 14:07:00,21.7,2.2,30.19,West,262,16.0,21.0,42,0.00,,---,0.00,VWS V14.01,2013-01-23 19:07:00,
2013-01-23 14:08:00,21.6,1.5,30.19,WSW,244,10.0,23.0,41,0.00,,---,0.00,VWS V14.01,2013-01-23 19:08:00,
2013-01-23 14:10:00,21.6,2.1,30.19,WSW,252,9.0,23.0,42,0.00,,---,0.00,VWS V14.01,2013-01-23 19:10:00,
2013-01-23 14:11:00,21.7,2.7,30.20,West,264,10.0,23.0,43,0.00,,---,0.00,VWS V14.01,2013-01-23 19:11:00,
2013-01-23 14:12:00,21.8,2.8,30.19,West,271,14.0,23.0,43,0.00,,---,0.00,VWS V14.01,2013-01-23 19:12:00,
2013-01-23 14:13:00,21.6,1.5,30.20,West,269,8.0,23.0,41,0.00,,---,0.00,VWS V14.01,2013-01-23 19:13:00,
2013-01-23 14:15:00,21.5,0.9,30.19,WNW,285,13.0,23.0,40,0.00,,---,0.00,VWS V14.01,2013-01-23 19:15:00,
2013-01-23 14:16:00,21.5,0.9,30.19,SW,236,12.0,23.0,40,0.00,,---,0.00,VWS V14.01,2013-01-23 19:16:00,
2013-01-23 14:17:00,21.5,1.5,30.19,West,270,9.0,23.0,41,0.00,,---,0.00,VWS V14.01,2013-01-23 19:17:00,
2013-01-23 14:19:00,21.7,2.7,30.19,WSW,254,11.0,23.0,43,0.00,,---,0.00,VWS V14.01,2013-01-23 19:19:00,
2013-01-23 14:20:00,21.8,2.2,30.19,NW,307,11.0,23.0,42,0.00,,---,0.00,VWS V14.01,2013-01-23 19:20:00,
2013-01-23 14:21:00,21.8,2.2,30.19,West,274,5.0,23.0,42,0.00,,---,0.00,VWS V14.01,2013-01-23 19:21:00,
2013-01-23 14:23:00,21.9,1.8,30.19,West,275,8.0,23.0,41,0.00,,---,0.00,VWS V14.01,2013-01-23 19:23:00,
2013-01-23 14:24:00,21.9,1.8,30.19,WSW,237,15.0,23.0,41,0.00,,---,0.00,VWS V14.01,2013-01-23 19:24:00,
2013-01-23 14:25:00,22.0,1.4,30.19,NW,323,9.0,23.0,40,0.00,,---,0.00,VWS V14.01,2013-01-23 19:25:00,
2013-01-23 14:26:00,22.0,1.9,30.19,WSW,256,9.0,23.0,41,0.00,,---,0.00,VWS V14.01,2013-01-23 19:26:00,
2013-01-23 14:28:00,21.9,0.8,30.19,WSW,254,13.0,23.0,39,0.00,,---,0.00,VWS V14.01,2013-01-23 19:28:00,
2013-01-23 14:29:00,21.7,0.0,30.19,NW,323,10.0,23.0,38,0.00,,---,0.00,VWS V14.01,2013-01-23 19:29:00,
2013-01-23 14:30:00,21.6,0.5,30.19,West,270,11.0,23.0,39,0.00,,---,0.00,VWS V14.01,2013-01-23 19:30:00,
2013-01-23 14:31:00,21.6,-0.1,30.19,West,281,12.0,12.0,38,0.00,,---,0.00,VWS V14.01,2013-01-23 19:31:00,
2013-01-23 14:32:00,21.5,0.4,30.19,West,279,13.0,13.0,39,0.00,,---,0.00,VWS V14.01,2013-01-23 19:32:00,
2013-01-23 14:33:00,21.5,0.9,30.19,NW,305,6.0,13.0,40,0.00,,---,0.00,VWS V14.01,2013-01-23 19:33:00,
2013-01-23 14:35:00,21.7,1.6,30.19,WSW,247,13.0,14.0,41,0.00,,---,0.00,VWS V14.01,2013-01-23 19:35:00,
2013-01-23 14:36:00,21.7,1.1,30.19,West,268,17.0,19.0,40,0.00,,---,0.00,VWS V14.01,2013-01-23 19:36:00,
2013-01-23 14:37:00,21.6,0.5,30.19,SW,223,11.0,19.0,39,0.00,,---,0.00,VWS V14.01,2013-01-23 19:37:00,
2013-01-23 14:39:00,21.5,0.4,30.19,WNW,291,10.0,19.0,39,0.00,,---,0.00,VWS V14.01,2013-01-23 19:39:00,
2013-01-23 14:40:00,21.5,0.4,30.19,West,275,13.0,19.0,39,0.00,,---,0.00,VWS V14.01,2013-01-23 19:40:00,
2013-01-23 14:41:00,21.7,1.6,30.19,NW,316,11.0,19.0,41,0.00,,---,0.00,VWS V14.01,2013-01-23 19:41:00,
2013-01-23 14:43:00,21.9,1.8,30.19,WSW,255,13.0,19.0,41,0.00,,---,0.00,VWS V14.01,2013-01-23 19:43:00,
2013-01-23 14:44:00,21.9,1.3,30.19,WNW,282,16.0,20.0,40,0.00,,---,0.00,VWS V14.01,2013-01-23 19:44:00,
2013-01-23 14:45:00,21.9,1.3,30.19,WNW,293,17.0,20.0,40,0.00,,---,0.00,VWS V14.01,2013-01-23 19:45:00,
2013-01-23 14:46:00,21.7,1.1,30.19,West,259,20.0,22.0,40,0.00,,---,0.00,VWS V14.01,2013-01-23 19:46:00,
2013-01-23 14:48:00,21.5,0.9,30.19,WNW,283,12.0,22.0,40,0.00,,---,0.00,VWS V14.01,2013-01-23 19:48:00,
2013-01-23 14:49:00,21.3,0.8,30.19,WNW,289,10.0,22.0,40,0.00,,---,0.00,VWS V14.01,2013-01-23 19:49:00,
2013-01-23 14:50:00,21.2,0.7,30.19,NW,306,7.0,22.0,40,0.00,,---,0.00,VWS V14.01,2013-01-23 19:50:00,
2013-01-23 14:51:00,21.2,1.7,30.19,West,266,17.0,22.0,42,0.00,,---,0.00,VWS V14.01,2013-01-23 19:51:00,
2013-01-23 14:54:00,20.9,0.4,30.20,WSW,258,16.0,22.0,40,0.00,,---,0.00,VWS V14.01,2013-01-23 19:54:00,
2013-01-23 14:55:00,20.8,0.8,30.20,West,264,12.0,22.0,41,0.00,,---,0.00,VWS V14.01,2013-01-23 19:55:00,
2013-01-23 14:56:00,20.8,0.8,30.19,South,186,6.0,22.0,41,0.00,,---,0.00,VWS V14.01,2013-01-23 19:56:00,
2013-01-23 14:59:00,21.0,1.0,30.20,WSW,246,12.0,22.0,41,0.00,,---,0.00,VWS V14.01,2013-01-23 19:59:00,
2013-01-23 15:00:00,21.2,1.7,30.19,West,274,16.0,22.0,42,0.00,,---,0.00,VWS V14.01,2013-01-23 20:00:00,
2013-01-23 15:01:00,21.2,0.7,30.19,NW,309,8.0,22.0,40,0.00,,---,0.00,VWS V14.01,2013-01-23 20:01:00,
2013-01-23 15:02:00,21.3,0.2,30.19,West,276,11.0,22.0,39,0.00,,---,0.00,VWS V14.01,2013-01-23 20:02:00,
2013-01-23 15:04:00,21.3,0.2,30.19,West,262,14.0,22.0,39,0.00,,---,0.00,VWS V14.01,2013-01-23 20:04:00,
2013-01-23 15:05:00,21.3,0.2,30.20,West,276,12.0,22.0,39,0.00,,---,0.00,VWS V14.01,2013-01-23 20:05:00,
2013-01-23 15:06:00,21.3,0.8,30.20,West,280,19.0,22.0,40,0.00,,---,0.00,VWS V14.01,2013-01-23 20:06:00,
2013-01-23 15:08:00,21.2,0.7,30.20,WSW,247,11.0,22.0,40,0.00,,---,0.00,VWS V14.01,2013-01-23 20:08:00,
2013-01-23 15:10:00,21.3,1.3,30.20,West,269,10.0,22.0,41,0.00,,---,0.00,VWS V14.01,2013-01-23 20:10:00,
2013-01-23 15:11:00,21.3,0.8,30.20,West,272,9.0,22.0,40,0.00,,---,0.00,VWS V14.01,2013-01-23 20:11:00,
2013-01-23 15:13:00,21.3,1.3,30.20,WSW,245,9.0,22.0,41,0.00,,---,0.00,VWS V14.01,2013-01-23 20:13:00,
2013-01-23 15:14:00,21.4,1.4,30.20,WSW,255,11.0,22.0,41,0.00,,---,0.00,VWS V14.01,2013-01-23 20:14:00,
2013-01-23 15:16:00,21.5,2.0,30.20,WSW,257,10.0,22.0,42,0.00,,---,0.00,VWS V14.01,2013-01-23 20:16:00,
2013-01-23 15:18:00,21.2,0.1,30.20,WSW,250,8.0,22.0,39,0.00,,---,0.00,VWS V14.01,2013-01-23 20:18:00,
2013-01-23 15:20:00,21.0,0.5,30.20,WSW,258,8.0,22.0,40,0.00,,---,0.00,VWS V14.01,2013-01-23 20:20:00,
2013-01-23 15:21:00,21.2,2.2,30.19,North,358,8.0,22.0,43,0.00,,---,0.00,VWS V14.01,2013-01-23 20:21:00,
2013-01-23 15:24:00,21.4,2.4,30.20,WNW,285,17.0,22.0,43,0.00,,---,0.00,VWS V14.01,2013-01-23 20:24:00,
2013-01-23 15:25:00,21.5,1.5,30.19,WNW,296,12.0,22.0,41,0.00,,---,0.00,VWS V14.01,2013-01-23 20:25:00,
2013-01-23 15:26:00,21.5,1.5,30.19,WNW,286,9.0,22.0,41,0.00,,---,0.00,VWS V14.01,2013-01-23 20:26:00,
2013-01-23 15:29:00,21.6,1.5,30.19,WNW,297,13.0,22.0,41,0.00,,---,0.00,VWS V14.01,2013-01-23 20:29:00,
2013-01-23 15:30:00,21.6,1.5,30.19,NNW,344,11.0,22.0,41,0.00,,---,0.00,VWS V14.01,2013-01-23 20:30:00,
2013-01-23 15:31:00,21.6,1.0,30.19,South,170,9.0,16.0,40,0.00,,---,0.00,VWS V14.01,2013-01-23 20:31:00,
2013-01-23 15:34:00,21.5,1.5,30.19,NW,307,10.0,18.0,41,0.00,,---,0.00,VWS V14.01,2013-01-23 20:34:00,
2013-01-23 15:35:00,21.6,1.5,30.19,WNW,283,9.0,18.0,41,0.00,,---,0.00,VWS V14.01,2013-01-23 20:35:00,
2013-01-23 15:36:00,21.6,2.1,30.19,WNW,301,12.0,18.0,42,0.00,,---,0.00,VWS V14.01,2013-01-23 20:36:00,
2013-01-23 15:39:00,21.6,1.5,30.20,West,266,12.0,19.0,41,0.00,,---,0.00,VWS V14.01,2013-01-23 20:39:00,
2013-01-23 15:40:00,21.5,1.5,30.20,WNW,293,14.0,19.0,41,0.00,,---,0.00,VWS V14.01,2013-01-23 20:40:00,
2013-01-23 15:42:00,21.4,1.4,30.20,West,265,11.0,19.0,41,0.00,,---,0.00,VWS V14.01,2013-01-23 20:42:00,
2013-01-23 15:44:00,21.3,0.8,30.20,West,272,14.0,19.0,40,0.00,,---,0.00,VWS V14.01,2013-01-23 20:44:00,
2013-01-23 15:46:00,21.3,1.8,30.19,West,276,9.0,19.0,42,0.00,,---,0.00,VWS V14.01,2013-01-23 20:46:00,
2013-01-23 15:47:00,21.3,1.8,30.19,West,264,8.0,19.0,42,0.00,,---,0.00,VWS V14.01,2013-01-23 20:47:00,
2013-01-23 15:48:00,21.3,1.8,30.19,West,275,15.0,19.0,42,0.00,,---,0.00,VWS V14.01,2013-01-23 20:48:00,
2013-01-23 15:49:00,21.3,1.8,30.19,WNW,287,10.0,19.0,42,0.00,,---,0.00,VWS V14.01,2013-01-23 20:49:00,
2013-01-23 15:51:00,21.3,1.3,30.20,WNW,302,9.0,19.0,41,0.00,,---,0.00,VWS V14.01,2013-01-23 20:51:00,
2013-01-23 15:52:00,21.3,1.8,30.20,West,277,11.0,19.0,42,0.00,,---,0.00,VWS V14.01,2013-01-23 20:52:00,
2013-01-23 15:53:00,21.3,1.8,30.20,West,268,10.0,19.0,42,0.00,,---,0.00,VWS V14.01,2013-01-23 20:53:00,
2013-01-23 15:54:00,21.3,1.3,30.20,WNW,283,9.0,19.0,41,0.00,,---,0.00,VWS V14.01,2013-01-23 20:54:00,
2013-01-23 15:57:00,21.3,1.3,30.20,West,273,16.0,20.0,41,0.00,,---,0.00,VWS V14.01,2013-01-23 20:57:00,
2013-01-23 15:58:00,21.3,1.3,30.20,North,2,12.0,20.0,41,0.00,,---,0.00,VWS V14.01,2013-01-23 20:58:00,
2013-01-23 16:00:00,21.2,0.7,30.20,SW,226,12.0,20.0,40,0.00,,---,0.00,VWS V14.01,2013-01-23 21:00:00,
2013-01-23 16:03:00,21.3,2.3,30.20,WSW,241,10.0,18.0,43,0.00,,---,0.00,VWS V14.01,2013-01-23 21:03:00,
2013-01-23 16:06:00,21.6,3.1,30.20,WNW,301,10.0,18.0,44,0.00,,---,0.00,VWS V14.01,2013-01-23 21:06:00,
2013-01-23 16:08:00,21.6,2.1,30.20,WNW,292,12.0,20.0,42,0.00,,---,0.00,VWS V14.01,2013-01-23 21:08:00,
2013-01-23 16:09:00,21.5,1.5,30.20,West,276,9.0,20.0,41,0.00,,---,0.00,VWS V14.01,2013-01-23 21:09:00,
2013-01-23 16:11:00,21.4,0.8,30.20,West,273,6.0,20.0,40,0.00,,---,0.00,VWS V14.01,2013-01-23 21:11:00,
2013-01-23 16:13:00,21.4,1.4,30.20,West,275,8.0,20.0,41,0.00,,---,0.00,VWS V14.01,2013-01-23 21:13:00,
2013-01-23 16:14:00,21.3,1.8,30.20,WNW,294,14.0,20.0,42,0.00,,---,0.00,VWS V14.01,2013-01-23 21:14:00,
2013-01-23 16:16:00,21.1,1.6,30.20,WSW,244,13.0,20.0,42,0.00,,---,0.00,VWS V14.01,2013-01-23 21:16:00,
2013-01-23 16:18:00,21.1,1.6,30.20,WNW,299,12.0,20.0,42,0.00,,---,0.00,VWS V14.01,2013-01-23 21:18:00,
2013-01-23 16:19:00,21.1,2.1,30.20,SW,220,9.0,20.0,43,0.00,,---,0.00,VWS V14.01,2013-01-23 21:19:00,
2013-01-23 16:21:00,21.0,1.0,30.20,SSW,196,7.0,20.0,41,0.00,,---,0.00,VWS V14.01,2013-01-23 21:21:00,
2013-01-23 16:23:00,21.0,1.5,30.20,WSW,258,12.0,20.0,42,0.00,,---,0.00,VWS V14.01,2013-01-23 21:23:00,
2013-01-23 16:24:00,21.0,1.5,30.20,WSW,253,9.0,20.0,42,0.00,,---,0.00,VWS V14.01,2013-01-23 21:24:00,
2013-01-23 16:26:00,20.9,1.4,30.20,West,270,10.0,20.0,42,0.00,,---,0.00,VWS V14.01,2013-01-23 21:26:00,
2013-01-23 16:28:00,21.0,2.0,30.20,West,261,12.0,20.0,43,0.00,,---,0.00,VWS V14.01,2013-01-23 21:28:00,
2013-01-23 16:29:00,21.0,1.5,30.20,WNW,283,11.0,20.0,42,0.00,,---,0.00,VWS V14.01,2013-01-23 21:29:00,
2013-01-23 16:30:00,21.0,1.5,30.20,West,270,11.0,21.0,42,0.00,,---,0.00,VWS V14.01,2013-01-23 21:30:00,
2013-01-23 16:31:00,20.9,1.4,30.20,WSW,242,15.0,19.0,42,0.00,,---,0.00,VWS V14.01,2013-01-23 21:31:00,
2013-01-23 16:33:00,20.8,1.3,30.20,WNW,283,7.0,19.0,42,0.00,,---,0.00,VWS V14.01,2013-01-23 21:33:00,
2013-01-23 16:34:00,20.8,1.3,30.20,SW,230,13.0,19.0,42,0.00,,---,0.00,VWS V14.01,2013-01-23 21:34:00,
2013-01-23 16:37:00,20.6,1.7,30.20,SSW,194,12.0,20.0,43,0.00,,---,0.00,VWS V14.01,2013-01-23 21:37:00,
2013-01-23 16:38:00,20.6,1.7,30.20,West,271,9.0,20.0,43,0.00,,---,0.00,VWS V14.01,2013-01-23 21:38:00,
2013-01-23 16:39:00,20.6,1.7,30.20,WSW,258,10.0,20.0,43,0.00,,---,0.00,VWS V14.01,2013-01-23 21:39:00,
2013-01-23 16:40:00,20.6,2.2,30.20,NNW,327,7.0,20.0,44,0.00,,---,0.00,VWS V14.01,2013-01-23 21:40:00,
2013-01-23 16:42:00,20.6,1.7,30.20,NNW,329,12.0,20.0,43,0.00,,---,0.00,VWS V14.01,2013-01-23 21:42:00,
2013-01-23 16:43:00,20.6,1.7,30.20,West,281,9.0,20.0,43,0.00,,---,0.00,VWS V14.01,2013-01-23 21:43:00,
2013-01-23 16:44:00,20.5,2.1,30.20,WNW,294,7.0,20.0,44,0.00,,---,0.00,VWS V14.01,2013-01-23 21:44:00,
2013-01-23 16:45:00,20.5,1.6,30.20,NW,309,9.0,20.0,43,0.00,,---,0.00,VWS V14.01,2013-01-23 21:45:00,
2013-01-23 16:47:00,20.4,0.5,30.20,West,271,10.0,20.0,41,0.00,,---,0.00,VWS V14.01,2013-01-23 21:47:00,
2013-01-23 16:49:00,20.5,1.6,30.20,WNW,299,5.0,20.0,43,0.00,,---,0.00,VWS V14.01,2013-01-23 21:49:00,
2013-01-23 16:50:00,20.5,2.5,30.20,West,275,11.0,20.0,45,0.00,,---,0.00,VWS V14.01,2013-01-23 21:50:00,
2013-01-23 16:53:00,20.5,3.0,30.20,WNW,295,8.0,20.0,46,0.00,,---,0.00,VWS V14.01,2013-01-23 21:53:00,
2013-01-23 16:54:00,20.5,2.5,30.20,WSW,257,17.0,20.0,45,0.00,,---,0.00,VWS V14.01,2013-01-23 21:54:00,
2013-01-23 16:55:00,20.4,2.0,30.20,WSW,247,12.0,20.0,44,0.00,,---,0.00,VWS V14.01,2013-01-23 21:55:00,
2013-01-23 16:56:00,20.4,2.0,30.20,NW,309,13.0,20.0,44,0.00,,---,0.00,VWS V14.01,2013-01-23 21:56:00,
2013-01-23 16:58:00,20.2,2.3,30.20,West,272,12.0,20.0,45,0.00,,---,0.00,VWS V14.01,2013-01-23 21:58:00,
2013-01-23 16:59:00,20.2,2.3,30.20,WSW,244,9.0,20.0,45,0.00,,---,0.00,VWS V14.01,2013-01-23 21:59:00,
2013-01-23 17:00:00,20.2,2.7,30.20,WNW,302,11.0,12.0,46,0.00,,---,0.00,VWS V14.01,2013-01-23 22:00:00,
2013-01-23 17:01:00,20.2,2.7,30.20,West,278,5.0,13.0,46,0.00,,---,0.00,VWS V14.01,2013-01-23 22:01:00,
2013-01-23 17:04:00,20.2,2.7,30.20,WNW,293,8.0,16.0,46,0.00,,---,0.00,VWS V14.01,2013-01-23 22:04:00,
2013-01-23 17:06:00,20.2,2.3,30.20,WNW,293,14.0,16.0,45,0.00,,---,0.00,VWS V14.01,2013-01-23 22:06:00,
2013-01-23 17:09:00,20.1,2.7,30.20,NNW,343,10.0,16.0,46,0.00,,---,0.00,VWS V14.01,2013-01-23 22:09:00,
2013-01-23 17:10:00,20.2,2.7,30.20,WSW,242,11.0,16.0,46,0.00,,---,0.00,VWS V14.01,2013-01-23 22:10:00,
2013-01-23 17:11:00,20.2,2.7,30.20,NNE,15,12.0,16.0,46,0.00,,---,0.00,VWS V14.01,2013-01-23 22:11:00,
2013-01-23 17:14:00,20.1,2.7,30.20,WNW,288,8.0,16.0,46,0.00,,---,0.00,VWS V14.01,2013-01-23 22:14:00,
2013-01-23 17:15:00,20.1,2.7,30.20,West,267,18.0,18.0,46,0.00,,---,0.00,VWS V14.01,2013-01-23 22:15:00,
2013-01-23 17:16:00,20.1,2.7,30.20,West,266,11.0,18.0,46,0.00,,---,0.00,VWS V14.01,2013-01-23 22:16:00,
2013-01-23 17:20:00,20.0,2.1,30.21,West,279,8.0,18.0,45,0.00,,---,0.00,VWS V14.01,2013-01-23 22:20:00,
2013-01-23 17:21:00,20.0,2.1,30.20,WNW,288,8.0,18.0,45,0.00,,---,0.00,VWS V14.01,2013-01-23 22:21:00,
2013-01-23 17:25:00,19.9,2.5,30.20,West,272,14.0,18.0,46,0.00,,---,0.00,VWS V14.01,2013-01-23 22:25:00,
2013-01-23 17:26:00,19.9,2.0,30.20,West,277,7.0,18.0,45,0.00,,---,0.00,VWS V14.01,2013-01-23 22:26:00,
2013-01-23 17:30:00,19.8,2.4,30.21,NW,309,6.0,7.0,46,0.00,,---,0.00,VWS V14.01,2013-01-23 22:30:00,
2013-01-23 17:31:00,19.8,2.4,30.21,West,259,15.0,15.0,46,0.00,,---,0.00,VWS V14.01,2013-01-23 22:31:00,
2013-01-23 17:35:00,19.8,2.4,30.21,WNW,293,13.0,15.0,46,0.00,,---,0.00,VWS V14.01,2013-01-23 22:35:00,
2013-01-23 17:36:00,19.8,2.4,30.21,WNW,290,11.0,15.0,46,0.00,,---,0.00,VWS V14.01,2013-01-23 22:36:00,
2013-01-23 17:40:00,19.7,1.8,30.21,WNW,290,4.0,15.0,45,0.00,,---,0.00,VWS V14.01,2013-01-23 22:40:00,
2013-01-23 17:41:00,19.7,1.8,30.21,NW,304,5.0,15.0,45,0.00,,---,0.00,VWS V14.01,2013-01-23 22:41:00,
2013-01-23 17:42:00,19.7,2.3,30.21,West,269,5.0,15.0,46,0.00,,---,0.00,VWS V14.01,2013-01-23 22:42:00,
2013-01-23 17:45:00,19.6,2.7,30.21,NW,313,7.0,15.0,47,0.00,,---,0.00,VWS V14.01,2013-01-23 22:45:00,
2013-01-23 17:46:00,19.6,2.7,30.21,WNW,288,7.0,15.0,47,0.00,,---,0.00,VWS V14.01,2013-01-23 22:46:00,
2013-01-23 17:47:00,19.6,2.7,30.21,West,265,8.0,15.0,47,0.00,,---,0.00,VWS V14.01,2013-01-23 22:47:00,
2013-01-23 17:51:00,19.4,2.5,30.21,West,269,12.0,15.0,47,0.00,,---,0.00,VWS V14.01,2013-01-23 22:51:00,
2013-01-23 17:52:00,19.4,2.5,30.21,WNW,282,6.0,15.0,47,0.00,,---,0.00,VWS V14.01,2013-01-23 22:52:00,
2013-01-23 17:56:00,19.3,1.5,30.22,WNW,296,10.0,15.0,45,0.00,,---,0.00,VWS V14.01,2013-01-23 22:56:00,
2013-01-23 17:57:00,19.3,1.9,30.22,North,349,6.0,15.0,46,0.00,,---,0.00,VWS V14.01,2013-01-23 22:57:00,
2013-01-23 17:58:00,19.2,1.8,30.21,West,260,4.0,15.0,46,0.00,,---,0.00,VWS V14.01,2013-01-23 22:58:00,
2013-01-23 18:00:00,19.2,1.8,30.21,WNW,292,6.0,15.0,46,0.00,,---,0.00,VWS V14.01,2013-01-23 23:00:00,
2013-01-23 18:01:00,19.2,1.8,30.22,NW,307,7.0,13.0,46,0.00,,---,0.00,VWS V14.01,2013-01-23 23:01:00,
2013-01-23 18:02:00,19.2,1.4,30.21,West,264,6.0,13.0,45,0.00,,---,0.00,VWS V14.01,2013-01-23 23:02:00,
2013-01-23 18:03:00,19.2,1.8,30.21,WNW,299,8.0,13.0,46,0.00,,---,0.00,VWS V14.01,2013-01-23 23:03:00,
2013-01-23 18:06:00,19.1,2.2,30.22,WSW,237,6.0,13.0,47,0.00,,---,0.00,VWS V14.01,2013-01-23 23:06:00,
2013-01-23 18:07:00,19.1,2.2,30.22,WNW,291,9.0,13.0,47,0.00,,---,0.00,VWS V14.01,2013-01-23 23:07:00,
2013-01-23 18:08:00,19.2,2.3,30.22,West,278,5.0,13.0,47,0.00,,---,0.00,VWS V14.01,2013-01-23 23:08:00,
2013-01-23 18:09:00,19.1,2.2,30.22,WSW,245,8.0,13.0,47,0.00,,---,0.00,VWS V14.01,2013-01-23 23:09:00,
2013-01-23 18:12:00,19.1,2.2,30.22,NW,307,11.0,13.0,47,0.00,,---,0.00,VWS V14.01,2013-01-23 23:12:00,
2013-01-23 18:13:00,19.1,2.2,30.22,NW,314,10.0,13.0,47,0.00,,---,0.00,VWS V14.01,2013-01-23 23:13:00,
2013-01-23 18:14:00,19.1,1.7,30.22,West,265,5.0,13.0,46,0.00,,---,0.00,VWS V14.01,2013-01-23 23:14:00,
2013-01-23 18:17:00,19.0,1.6,30.22,West,271,8.0,13.0,46,0.00,,---,0.00,VWS V14.01,2013-01-23 23:17:00,
2013-01-23 18:18:00,19.0,2.1,30.22,West,259,14.0,14.0,47,0.00,,---,0.00,VWS V14.01,2013-01-23 23:18:00,
2013-01-23 18:19:00,19.0,2.1,30.22,WSW,244,7.0,14.0,47,0.00,,---,0.00,VWS V14.01,2013-01-23 23:19:00,
2013-01-23 18:22:00,18.9,2.0,30.23,ESE,116,4.0,14.0,47,0.00,,---,0.00,VWS V14.01,2013-01-23 23:22:00,
2013-01-23 18:23:00,18.9,2.0,30.23,West,260,9.0,14.0,47,0.00,,---,0.00,VWS V14.01,2013-01-23 23:23:00,
2013-01-23 18:24:00,18.9,2.0,30.23,West,281,8.0,14.0,47,0.00,,---,0.00,VWS V14.01,2013-01-23 23:24:00,
2013-01-23 18:25:00,18.9,2.0,30.23,WNW,287,4.0,14.0,47,0.00,,---,0.00,VWS V14.01,2013-01-23 23:25:00,
2013-01-23 18:27:00,18.9,2.0,30.23,SW,233,8.0,14.0,47,0.00,,---,0.00,VWS V14.01,2013-01-23 23:27:00,
2013-01-23 18:28:00,18.9,2.5,30.23,NW,310,6.0,14.0,48,0.00,,---,0.00,VWS V14.01,2013-01-23 23:28:00,
2013-01-23 18:29:00,18.9,2.5,30.23,WSW,255,7.0,14.0,48,0.00,,---,0.00,VWS V14.01,2013-01-23 23:29:00,
2013-01-23 18:30:00,18.9,2.5,30.23,West,259,8.0,10.0,48,0.00,,---,0.00,VWS V14.01,2013-01-23 23:30:00,
2013-01-23 18:32:00,18.9,2.5,30.23,WNW,299,5.0,11.0,48,0.00,,---,0.00,VWS V14.01,2013-01-23 23:32:00,
2013-01-23 18:33:00,18.9,2.5,30.23,NW,308,5.0,11.0,48,0.00,,---,0.00,VWS V14.01,2013-01-23 23:33:00,
2013-01-23 18:35:00,18.9,2.5,30.23,NW,317,4.0,11.0,48,0.00,,---,0.00,VWS V14.01,2013-01-23 23:35:00,
2013-01-23 18:38:00,18.9,2.5,30.23,WSW,250,4.0,11.0,48,0.00,,---,0.00,VWS V14.01,2013-01-23 23:38:00,
2013-01-23 18:39:00,18.8,2.4,30.22,NW,309,2.0,11.0,48,0.00,,---,0.00,VWS V14.01,2013-01-23 23:39:00,
2013-01-23 18:40:00,18.8,2.4,30.22,West,275,6.0,11.0,48,0.00,,---,0.00,VWS V14.01,2013-01-23 23:40:00,
2013-01-23 18:43:00,18.8,2.4,30.23,WNW,295,7.0,11.0,48,0.00,,---,0.00,VWS V14.01,2013-01-23 23:43:00,
2013-01-23 18:44:00,18.8,2.8,30.23,WSW,242,3.0,11.0,49,0.00,,---,0.00,VWS V14.01,2013-01-23 23:44:00,
2013-01-23 18:45:00,18.8,2.4,30.23,West,267,6.0,11.0,48,0.00,,---,0.00,VWS V14.01,2013-01-23 23:45:00,
2013-01-23 18:46:00,18.8,2.4,30.23,WNW,283,7.0,11.0,48,0.00,,---,0.00,VWS V14.01,2013-01-23 23:46:00,
2013-01-23 18:48:00,18.8,2.4,30.22,NW,314,3.0,11.0,48,0.00,,---,0.00,VWS V14.01,2013-01-23 23:48:00,
2013-01-23 18:49:00,18.8,2.4,30.23,West,266,6.0,12.0,48,0.00,,---,0.00,VWS V14.01,2013-01-23 23:49:00,
2013-01-23 18:50:00,18.8,2.8,30.22,West,280,5.0,12.0,49,0.00,,---,0.00,VWS V14.01,2013-01-23 23:50:00,
2013-01-23 18:51:00,18.8,2.8,30.22,NW,304,2.0,12.0,49,0.00,,---,0.00,VWS V14.01,2013-01-23 23:51:00,
2013-01-23 18:53:00,18.8,2.4,30.22,WNW,287,6.0,12.0,48,0.00,,---,0.00,VWS V14.01,2013-01-23 23:53:00,
2013-01-23 18:54:00,18.8,2.4,30.22,SW,214,6.0,12.0,48,0.00,,---,0.00,VWS V14.01,2013-01-23 23:54:00,
2013-01-23 18:56:00,18.8,2.4,30.22,West,273,8.0,12.0,48,0.00,,---,0.00,VWS V14.01,2013-01-23 23:56:00,
2013-01-23 18:58:00,18.7,2.3,30.23,WNW,288,3.0,12.0,48,0.00,,---,0.00,VWS V14.01,2013-01-23 23:58:00,
2013-01-23 19:00:00,18.7,1.8,30.22,WNW,287,6.0,12.0,47,0.00,,---,0.00,VWS V14.01,2013-01-24 00:00:00,
2013-01-23 19:01:00,18.7,1.8,30.22,West,265,6.0,8.0,47,0.00,,---,0.00,VWS V14.01,2013-01-24 00:01:00,
2013-01-23 19:03:00,18.7,1.8,30.22,NNW,338,3.0,8.0,47,0.00,,---,0.00,VWS V14.01,2013-01-24 00:03:00,
2013-01-23 19:05:00,18.7,2.3,30.22,NW,319,6.0,8.0,48,0.00,,---,0.00,VWS V14.01,2013-01-24 00:05:00,
2013-01-23 19:06:00,18.6,2.2,30.22,WNW,290,4.0,8.0,48,0.00,,---,0.00,VWS V14.01,2013-01-24 00:06:00,
2013-01-23 19:08:00,18.6,2.2,30.22,WNW,296,3.0,8.0,48,0.00,,---,0.00,VWS V14.01,2013-01-24 00:08:00,
2013-01-23 19:10:00,18.6,2.2,30.22,WNW,296,3.0,8.0,48,0.00,,---,0.00,VWS V14.01,2013-01-24 00:10:00,
2013-01-23 19:11:00,18.7,1.8,30.22,WNW,297,0.0,8.0,47,0.00,,---,0.00,VWS V14.01,2013-01-24 00:11:00,
2013-01-23 19:13:00,18.7,2.3,30.22,SW,231,3.0,8.0,48,0.00,,---,0.00,VWS V14.01,2013-01-24 00:13:00,
2013-01-23 19:15:00,18.7,2.3,30.22,NW,308,4.0,8.0,48,0.00,,---,0.00,VWS V14.01,2013-01-24 00:15:00,
2013-01-23 19:16:00,18.7,2.3,30.22,NW,326,3.0,8.0,48,0.00,,---,0.00,VWS V14.01,2013-01-24 00:16:00,
2013-01-23 19:17:00,18.7,2.3,30.22,NW,317,4.0,8.0,48,0.00,,---,0.00,VWS V14.01,2013-01-24 00:17:00,
2013-01-23 19:19:00,18.7,1.8,30.21,WNW,290,2.0,8.0,47,0.00,,---,0.00,VWS V14.01,2013-01-24 00:19:00,
2013-01-23 19:20:00,18.7,1.8,30.21,WNW,298,4.0,8.0,47,0.00,,---,0.00,VWS V14.01,2013-01-24 00:20:00,
2013-01-23 19:21:00,18.7,1.8,30.21,WNW,288,4.0,8.0,47,0.00,,---,0.00,VWS V14.01,2013-01-24 00:21:00,
2013-01-23 19:22:00,18.7,1.8,30.21,SE,141,1.0,8.0,47,0.00,,---,0.00,VWS V14.01,2013-01-24 00:22:00,
2013-01-23 19:24:00,18.7,1.8,30.21,WNW,294,2.0,8.0,47,0.00,,---,0.00,VWS V14.01,2013-01-24 00:24:00,
2013-01-23 19:26:00,18.8,1.9,30.21,ENE,77,0.0,8.0,47,0.00,,---,0.00,VWS V14.01,2013-01-24 00:26:00,
2013-01-23 19:28:00,18.8,2.4,30.21,WNW,303,4.0,8.0,48,0.00,,---,0.00,VWS V14.01,2013-01-24 00:28:00,
2013-01-23 19:30:00,18.8,1.9,30.21,NW,314,3.0,8.0,47,0.00,,---,0.00,VWS V14.01,2013-01-24 00:30:00,
2013-01-23 19:31:00,18.8,2.4,30.21,WNW,293,1.0,3.0,48,0.00,,---,0.00,VWS V14.01,2013-01-24 00:31:00,
2013-01-23 19:32:00,18.8,2.4,30.21,NNW,345,1.0,3.0,48,0.00,,---,0.00,VWS V14.01,2013-01-24 00:32:00,
2013-01-23 19:33:00,18.8,2.4,30.21,NW,307,4.0,4.0,48,0.00,,---,0.00,VWS V14.01,2013-01-24 00:33:00,
2013-01-23 19:35:00,18.8,1.9,30.21,NNW,339,3.0,5.0,47,0.00,,---,0.00,VWS V14.01,2013-01-24 00:35:00,
2013-01-23 19:36:00,18.8,1.5,30.21,NNE,15,4.0,5.0,46,0.00,,---,0.00,VWS V14.01,2013-01-24 00:36:00,
2013-01-23 19:37:00,18.8,1.5,30.21,WSW,258,4.0,5.0,46,0.00,,---,0.00,VWS V14.01,2013-01-24 00:37:00,
2013-01-23 19:38:00,18.8,1.5,30.21,NNE,16,2.0,5.0,46,0.00,,---,0.00,VWS V14.01,2013-01-24 00:38:00,
2013-01-23 19:40:00,18.8,1.5,30.21,NNE,27,1.0,6.0,46,0.00,,---,0.00,VWS V14.01,2013-01-24 00:40:00,
2013-01-23 19:41:00,18.8,1.5,30.21,WSW,249,3.0,7.0,46,0.00,,---,0.00,VWS V14.01,2013-01-24 00:41:00,
2013-01-23 19:42:00,18.8,1.5,30.21,West,276,3.0,7.0,46,0.00,,---,0.00,VWS V14.01,2013-01-24 00:42:00,
2013-01-23 19:43:00,18.8,1.5,30.21,NW,325,0.0,7.0,46,0.00,,---,0.00,VWS V14.01,2013-01-24 00:43:00,
2013-01-23 19:45:00,18.8,1.9,30.21,NNW,332,4.0,7.0,47,0.00,,---,0.00,VWS V14.01,2013-01-24 00:45:00,
2013-01-23 19:46:00,18.8,1.9,30.21,WNW,292,3.0,7.0,47,0.00,,---,0.00,VWS V14.01,2013-01-24 00:46:00,
2013-01-23 19:48:00,18.8,1.9,30.21,West,277,1.0,7.0,47,0.00,,---,0.00,VWS V14.01,2013-01-24 00:48:00,
2013-01-23 19:50:00,18.9,2.0,30.21,West,281,2.0,7.0,47,0.00,,---,0.00,VWS V14.01,2013-01-24 00:50:00,
2013-01-23 19:51:00,18.9,2.0,30.21,WNW,284,4.0,7.0,47,0.00,,---,0.00,VWS V14.01,2013-01-24 00:51:00,
2013-01-23 19:53:00,18.9,2.0,30.21,West,274,3.0,7.0,47,0.00,,---,0.00,VWS V14.01,2013-01-24 00:53:00,
2013-01-23 19:55:00,18.9,2.5,30.21,NW,310,1.0,7.0,48,0.00,,---,0.00,VWS V14.01,2013-01-24 00:55:00,
2013-01-23 19:57:00,19.0,2.1,30.21,ENE,71,5.0,7.0,47,0.00,,---,0.00,VWS V14.01,2013-01-24 00:57:00,
2013-01-23 19:58:00,18.9,2.0,30.21,NNW,333,1.0,7.0,47,0.00,,---,0.00,VWS V14.01,2013-01-24 00:58:00,
2013-01-23 20:00:00,18.9,1.5,30.21,NE,34,3.0,5.0,46,0.00,,---,0.00,VWS V14.01,2013-01-24 01:00:00,
2013-01-23 20:02:00,18.9,2.0,30.21,ESE,103,0.0,5.0,47,0.00,,---,0.00,VWS V14.01,2013-01-24 01:02:00,
2013-01-23 20:03:00,18.9,2.0,30.21,SW,218,0.0,5.0,47,0.00,,---,0.00,VWS V14.01,2013-01-24 01:03:00,
2013-01-23 20:04:00,18.9,2.0,30.21,West,281,0.0,5.0,47,0.00,,---,0.00,VWS V14.01,2013-01-24 01:04:00,
2013-01-23 20:05:00,18.9,2.0,30.21,West,277,4.0,5.0,47,0.00,,---,0.00,VWS V14.01,2013-01-24 01:05:00,
2013-01-23 20:07:00,18.9,2.0,30.21,WNW,297,3.0,5.0,47,0.00,,---,0.00,VWS V14.01,2013-01-24 01:07:00,
2013-01-23 20:08:00,18.9,2.5,30.21,West,269,1.0,5.0,48,0.00,,---,0.00,VWS V14.01,2013-01-24 01:08:00,
2013-01-23 20:09:00,18.8,2.4,30.21,WNW,293,0.0,5.0,48,0.00,,---,0.00,VWS V14.01,2013-01-24 01:09:00,
2013-01-23 20:11:00,18.8,2.8,30.21,NW,314,0.0,5.0,49,0.00,,---,0.00,VWS V14.01,2013-01-24 01:11:00,
2013-01-23 20:12:00,18.8,2.4,30.21,WNW,298,3.0,5.0,48,0.00,,---,0.00,VWS V14.01,2013-01-24 01:12:00,
2013-01-23 20:14:00,18.8,2.4,30.21,NW,318,2.0,5.0,48,0.00,,---,0.00,VWS V14.01,2013-01-24 01:14:00,
2013-01-23 20:16:00,18.8,2.4,30.21,WNW,285,2.0,5.0,48,0.00,,---,0.00,VWS V14.01,2013-01-24 01:16:00,
2013-01-23 20:18:00,18.8,2.4,30.21,NW,317,1.0,5.0,48,0.00,,---,0.00,VWS V14.01,2013-01-24 01:18:00,
2013-01-23 20:19:00,18.7,2.3,30.21,NW,315,3.0,5.0,48,0.00,,---,0.00,VWS V14.01,2013-01-24 01:19:00,
2013-01-23 20:21:00,18.7,2.3,30.21,WNW,291,2.0,6.0,48,0.00,,---,0.00,VWS V14.01,2013-01-24 01:21:00,
2013-01-23 20:23:00,18.7,2.3,30.21,WNW,283,2.0,6.0,48,0.00,,---,0.00,VWS V14.01,2013-01-24 01:23:00,
2013-01-23 20:24:00,18.7,2.3,30.21,WNW,285,3.0,6.0,48,0.00,,---,0.00,VWS V14.01,2013-01-24 01:24:00,
2013-01-23 20:26:00,18.6,1.7,30.20,WSW,241,1.0,6.0,47,0.00,,---,0.00,VWS V14.01,2013-01-24 01:26:00,
2013-01-23 20:28:00,18.6,1.7,30.21,WSW,253,2.0,6.0,47,0.00,,---,0.00,VWS V14.01,2013-01-24 01:28:00,
2013-01-23 20:29:00,18.6,1.7,30.21,NW,317,2.0,6.0,47,0.00,,---,0.00,VWS V14.01,2013-01-24 01:29:00,
2013-01-23 20:30:00,18.6,1.7,30.21,NNW,341,1.0,6.0,47,0.00,,---,0.00,VWS V14.01,2013-01-24 01:30:00,
2013-01-23 20:32:00,18.6,2.2,30.21,NNW,337,0.0,3.0,48,0.00,,---,0.00,VWS V14.01,2013-01-24 01:32:00,
2013-01-23 20:33:00,18.6,2.2,30.21,West,271,2.0,6.0,48,0.00,,---,0.00,VWS V14.01,2013-01-24 01:33:00,
2013-01-23 20:34:00,18.6,2.2,30.21,North,359,0.0,6.0,48,0.00,,---,0.00,VWS V14.01,2013-01-24 01:34:00,
2013-01-23 20:35:00,18.6,2.2,30.21,NW,314,2.0,6.0,48,0.00,,---,0.00,VWS V14.01,2013-01-24 01:35:00,
2013-01-23 20:37:00,18.6,2.2,30.21,NW,323,2.0,6.0,48,0.00,,---,0.00,VWS V14.01,2013-01-24 01:37:00,
2013-01-23 20:38:00,18.6,2.2,30.21,North,352,2.0,6.0,48,0.00,,---,0.00,VWS V14.01,2013-01-24 01:38:00,
2013-01-23 20:40:00,18.5,1.6,30.21,West,278,0.0,6.0,47,0.00,,---,0.00,VWS V14.01,2013-01-24 01:40:00,
2013-01-23 20:41:00,18.5,2.1,30.21,NW,324,4.0,6.0,48,0.00,,---,0.00,VWS V14.01,2013-01-24 01:41:00,
2013-01-23 20:43:00,18.5,2.1,30.21,West,279,1.0,6.0,48,0.00,,---,0.00,VWS V14.01,2013-01-24 01:43:00,
2013-01-23 20:46:00,18.5,2.5,30.20,West,280,0.0,6.0,49,0.00,,---,0.00,VWS V14.01,2013-01-24 01:46:00,
2013-01-23 20:49:00,18.4,2.4,30.20,NW,307,3.0,6.0,49,0.00,,---,0.00,VWS V14.01,2013-01-24 01:49:00,
2013-01-23 20:51:00,18.3,2.3,30.20,WNW,282,1.0,6.0,49,0.00,,---,0.00,VWS V14.01,2013-01-24 01:51:00,
2013-01-23 20:52:00,18.3,2.3,30.20,WNW,294,1.0,6.0,49,0.00,,---,0.00,VWS V14.01,2013-01-24 01:52:00,
2013-01-23 20:54:00,18.2,2.3,30.20,NW,316,0.0,6.0,49,0.00,,---,0.00,VWS V14.01,2013-01-24 01:54:00,
2013-01-23 20:56:00,18.1,1.7,30.20,West,260,1.0,6.0,48,0.00,,---,0.00,VWS V14.01,2013-01-24 01:56:00,
2013-01-23 20:57:00,18.1,1.7,30.20,NW,307,1.0,6.0,48,0.00,,---,0.00,VWS V14.01,2013-01-24 01:57:00,
2013-01-23 20:59:00,18.1,2.2,30.20,NW,309,0.0,6.0,49,0.00,,---,0.00,VWS V14.01,2013-01-24 01:59:00,
2013-01-23 21:00:00,18.1,2.2,30.20,WNW,292,1.0,6.0,49,0.00,,---,0.00,VWS V14.01,2013-01-24 02:00:00,
2013-01-23 21:01:00,18.0,2.1,30.20,WNW,283,0.0,2.0,49,0.00,,---,0.00,VWS V14.01,2013-01-24 02:01:00,
2013-01-23 21:02:00,18.0,2.1,30.20,NW,307,2.0,2.0,49,0.00,,---,0.00,VWS V14.01,2013-01-24 02:02:00,
2013-01-23 21:04:00,17.9,2.0,30.20,WNW,303,0.0,2.0,49,0.00,,---,0.00,VWS V14.01,2013-01-24 02:04:00,
2013-01-23 21:07:00,17.9,2.4,30.20,WNW,301,1.0,3.0,50,0.00,,---,0.00,VWS V14.01,2013-01-24 02:07:00,
2013-01-23 21:08:00,17.9,2.4,30.20,WNW,301,1.0,3.0,50,0.00,,---,0.00,VWS V14.01,2013-01-24 02:08:00,
2013-01-23 21:09:00,17.9,2.4,30.20,WSW,249,1.0,4.0,50,0.00,,---,0.00,VWS V14.01,2013-01-24 02:09:00,
2013-01-23 21:13:00,17.9,2.0,30.20,West,266,0.0,4.0,49,0.00,,---,0.00,VWS V14.01,2013-01-24 02:13:00,
2013-01-23 21:15:00,17.9,2.0,30.20,West,275,2.0,4.0,49,0.00,,---,0.00,VWS V14.01,2013-01-24 02:15:00,
2013-01-23 21:18:00,17.8,1.9,30.20,WNW,298,0.0,4.0,49,0.00,,---,0.00,VWS V14.01,2013-01-24 02:18:00,
2013-01-23 21:20:00,17.8,1.9,30.20,West,266,0.0,4.0,49,0.00,,---,0.00,VWS V14.01,2013-01-24 02:20:00,
2013-01-23 21:23:00,17.7,1.8,30.20,West,278,1.0,4.0,49,0.00,,---,0.00,VWS V14.01,2013-01-24 02:23:00,
2013-01-23 21:25:00,17.7,1.8,30.20,WNW,287,0.0,4.0,49,0.00,,---,0.00,VWS V14.01,2013-01-24 02:25:00,
2013-01-23 21:26:00,17.8,1.9,30.20,WNW,288,1.0,4.0,49,0.00,,---,0.00,VWS V14.01,2013-01-24 02:26:00,
2013-01-23 21:28:00,17.8,2.3,30.20,West,278,0.0,4.0,50,0.00,,---,0.00,VWS V14.01,2013-01-24 02:28:00,
2013-01-23 21:30:00,17.7,2.2,30.20,WNW,293,1.0,4.0,50,0.00,,---,0.00,VWS V14.01,2013-01-24 02:30:00,
2013-01-23 21:31:00,17.7,2.2,30.20,West,275,0.0,1.0,50,0.00,,---,0.00,VWS V14.01,2013-01-24 02:31:00,
2013-01-23 21:33:00,17.7,2.2,30.20,WNW,297,1.0,2.0,50,0.00,,---,0.00,VWS V14.01,2013-01-24 02:33:00,
2013-01-23 21:34:00,17.6,2.1,30.20,WNW,295,1.0,2.0,50,0.00,,---,0.00,VWS V14.01,2013-01-24 02:34:00,
2013-01-23 21:35:00,17.7,2.2,30.20,WNW,284,1.0,2.0,50,0.00,,---,0.00,VWS V14.01,2013-01-24 02:35:00,
2013-01-23 21:36:00,17.7,2.2,30.20,WNW,290,2.0,2.0,50,0.00,,---,0.00,VWS V14.01,2013-01-24 02:36:00,
2013-01-23 21:39:00,17.6,2.1,30.20,West,269,0.0,2.0,50,0.00,,---,0.00,VWS V14.01,2013-01-24 02:39:00,
2013-01-23 21:40:00,17.6,2.1,30.20,NW,315,3.0,3.0,50,0.00,,---,0.00,VWS V14.01,2013-01-24 02:40:00,
2013-01-23 21:41:00,17.6,2.1,30.20,West,268,1.0,3.0,50,0.00,,---,0.00,VWS V14.01,2013-01-24 02:41:00,
2013-01-23 21:44:00,17.6,2.1,30.20,West,272,1.0,3.0,50,0.00,,---,0.00,VWS V14.01,2013-01-24 02:44:00,
2013-01-23 21:45:00,17.6,2.1,30.20,West,266,0.0,3.0,50,0.00,,---,0.00,VWS V14.01,2013-01-24 02:45:00,
2013-01-23 21:46:00,17.6,2.1,30.20,WNW,285,0.0,3.0,50,0.00,,---,0.00,VWS V14.01,2013-01-24 02:46:00,
2013-01-23 21:49:00,17.6,2.6,30.20,West,266,0.0,3.0,51,0.00,,---,0.00,VWS V14.01,2013-01-24 02:49:00,
2013-01-23 21:50:00,17.5,2.5,30.20,West,266,0.0,3.0,51,0.00,,---,0.00,VWS V14.01,2013-01-24 02:50:00,
2013-01-23 21:51:00,17.5,2.5,30.20,West,271,1.0,3.0,51,0.00,,---,0.00,VWS V14.01,2013-01-24 02:51:00,
2013-01-23 21:55:00,17.5,2.5,30.20,West,279,1.0,3.0,51,0.00,,---,0.00,VWS V14.01,2013-01-24 02:55:00,
2013-01-23 21:56:00,17.5,2.5,30.20,West,275,1.0,3.0,51,0.00,,---,0.00,VWS V14.01,2013-01-24 02:56:00,
2013-01-23 21:57:00,17.5,2.5,30.21,WNW,282,3.0,3.0,51,0.00,,---,0.00,VWS V14.01,2013-01-24 02:57:00,
2013-01-23 22:00:00,17.6,2.6,30.21,West,272,0.0,3.0,51,0.00,,---,0.00,VWS V14.01,2013-01-24 03:00:00,
2013-01-23 22:01:00,17.6,2.6,30.21,WNW,283,1.0,1.0,51,0.00,,---,0.00,VWS V14.01,2013-01-24 03:01:00,
2013-01-23 22:02:00,17.6,2.6,30.21,WNW,299,0.0,2.0,51,0.00,,---,0.00,VWS V14.01,2013-01-24 03:02:00,
2013-01-23 22:05:00,17.6,2.6,30.20,West,277,0.0,3.0,51,0.00,,---,0.00,VWS V14.01,2013-01-24 03:05:00,
2013-01-23 22:06:00,17.6,2.6,30.20,West,274,1.0,3.0,51,0.00,,---,0.00,VWS V14.01,2013-01-24 03:06:00,
2013-01-23 22:07:00,17.5,2.5,30.20,WNW,303,1.0,3.0,51,0.00,,---,0.00,VWS V14.01,2013-01-24 03:07:00,
2013-01-23 22:10:00,17.5,2.5,30.20,West,266,1.0,3.0,51,0.00,,---,0.00,VWS V14.01,2013-01-24 03:10:00,
2013-01-23 22:11:00,17.5,2.5,30.20,WNW,293,0.0,3.0,51,0.00,,---,0.00,VWS V14.01,2013-01-24 03:11:00,
2013-01-23 22:12:00,17.5,2.5,30.20,West,281,0.0,3.0,51,0.00,,---,0.00,VWS V14.01,2013-01-24 03:12:00,
2013-01-23 22:15:00,17.5,2.5,30.20,WNW,290,1.0,3.0,51,0.00,,---,0.00,VWS V14.01,2013-01-24 03:15:00,
2013-01-23 22:17:00,17.5,2.5,30.20,WNW,288,0.0,3.0,51,0.00,,---,0.00,VWS V14.01,2013-01-24 03:17:00,
2013-01-23 22:18:00,17.5,2.5,30.20,NW,307,1.0,3.0,51,0.00,,---,0.00,VWS V14.01,2013-01-24 03:18:00,
2013-01-23 22:21:00,17.5,2.5,30.20,WNW,299,0.0,3.0,51,0.00,,---,0.00,VWS V14.01,2013-01-24 03:21:00,
2013-01-23 22:22:00,17.5,2.5,30.20,West,267,1.0,3.0,51,0.00,,---,0.00,VWS V14.01,2013-01-24 03:22:00,
2013-01-23 22:23:00,17.5,2.5,30.20,West,281,2.0,3.0,51,0.00,,---,0.00,VWS V14.01,2013-01-24 03:23:00,
2013-01-23 22:26:00,17.5,2.9,30.20,West,268,0.0,3.0,52,0.00,,---,0.00,VWS V14.01,2013-01-24 03:26:00,
2013-01-23 22:27:00,17.5,2.9,30.20,NW,310,1.0,3.0,52,0.00,,---,0.00,VWS V14.01,2013-01-24 03:27:00,
2013-01-23 22:28:00,17.5,2.9,30.20,West,265,0.0,3.0,52,0.00,,---,0.00,VWS V14.01,2013-01-24 03:28:00,
2013-01-23 22:30:00,17.6,3.0,30.20,WNW,292,1.0,3.0,52,0.00,,---,0.00,VWS V14.01,2013-01-24 03:30:00,
2013-01-23 22:32:00,17.6,3.0,30.20,NW,309,1.0,1.0,52,0.00,,---,0.00,VWS V14.01,2013-01-24 03:32:00,
2013-01-23 22:33:00,17.6,3.0,30.20,West,277,0.0,1.0,52,0.00,,---,0.00,VWS V14.01,2013-01-24 03:33:00,
2013-01-23 22:37:00,17.7,3.1,30.19,WNW,301,0.0,4.0,52,0.00,,---,0.00,VWS V14.01,2013-01-24 03:37:00,
2013-01-23 22:38:00,17.7,3.1,30.19,WNW,300,2.0,4.0,52,0.00,,---,0.00,VWS V14.01,2013-01-24 03:38:00,
2013-01-23 22:39:00,17.7,3.1,30.19,NW,311,1.0,4.0,52,0.00,,---,0.00,VWS V14.01,2013-01-24 03:39:00,
2013-01-23 22:43:00,17.7,3.5,30.19,NW,318,3.0,4.0,53,0.00,,---,0.00,VWS V14.01,2013-01-24 03:43:00,
2013-01-23 22:44:00,17.7,3.5,30.19,NNW,339,0.0,4.0,53,0.00,,---,0.00,VWS V14.01,2013-01-24 03:44:00,
2013-01-23 22:48:00,17.8,2.8,30.19,WNW,298,2.0,6.0,51,0.00,,---,0.00,VWS V14.01,2013-01-24 03:48:00,
2013-01-23 22:49:00,17.8,2.8,30.19,WNW,292,3.0,6.0,51,0.00,,---,0.00,VWS V14.01,2013-01-24 03:49:00,
2013-01-23 22:50:00,17.9,2.8,30.19,NW,309,1.0,6.0,51,0.00,,---,0.00,VWS V14.01,2013-01-24 03:50:00,
2013-01-23 22:53:00,18.0,2.9,30.18,WNW,297,3.0,7.0,51,0.00,,---,0.00,VWS V14.01,2013-01-24 03:53:00,
2013-01-23 22:54:00,18.0,2.9,30.18,WNW,300,4.0,7.0,51,0.00,,---,0.00,VWS V14.01,2013-01-24 03:54:00,
2013-01-23 22:55:00,18.1,3.0,30.18,NW,326,2.0,7.0,51,0.00,,---,0.00,VWS V14.01,2013-01-24 03:55:00,
2013-01-23 22:58:00,18.1,3.9,30.18,WNW,302,4.0,7.0,53,0.00,,---,0.00,VWS V14.01,2013-01-24 03:58:00,
2013-01-23 23:00:00,18.2,4.4,30.18,WNW,297,2.0,7.0,54,0.00,,---,0.00,VWS V14.01,2013-01-24 04:00:00,
2013-01-23 23:03:00,18.2,5.2,30.18,NW,304,2.0,6.0,56,0.00,,---,0.00,VWS V14.01,2013-01-24 04:03:00,
2013-01-23 23:05:00,18.2,5.2,30.18,WNW,293,1.0,6.0,56,0.00,,---,0.00,VWS V14.01,2013-01-24 04:05:00,
2013-01-23 23:08:00,18.2,5.2,30.18,West,274,8.0,9.0,56,0.00,,---,0.00,VWS V14.01,2013-01-24 04:08:00,
2013-01-23 23:10:00,18.1,5.1,30.18,NW,311,3.0,9.0,56,0.00,,---,0.00,VWS V14.01,2013-01-24 04:10:00,
2013-01-23 23:11:00,18.1,5.1,30.18,NNE,30,4.0,9.0,56,0.00,,---,0.00,VWS V14.01,2013-01-24 04:11:00,
2013-01-23 23:14:00,18.0,5.3,30.18,NNE,13,5.0,9.0,57,0.00,,---,0.00,VWS V14.01,2013-01-24 04:14:00,
2013-01-23 23:16:00,17.9,5.6,30.18,NW,315,3.0,9.0,58,0.00,,---,0.00,VWS V14.01,2013-01-24 04:16:00,
2013-01-23 23:17:00,17.9,5.6,30.18,NNE,13,2.0,9.0,58,0.00,,---,0.00,VWS V14.01,2013-01-24 04:17:00,
2013-01-23 23:19:00,17.8,5.5,30.18,NNE,32,2.0,9.0,58,0.00,,---,0.00,VWS V14.01,2013-01-24 04:19:00,
2013-01-23 23:21:00,17.9,5.2,30.19,NW,323,2.0,9.0,57,0.00,,---,0.00,VWS V14.01,2013-01-24 04:21:00,
2013-01-23 23:22:00,17.8,5.2,30.18,WNW,300,4.0,9.0,57,0.00,,---,0.00,VWS V14.01,2013-01-24 04:22:00,
2013-01-23 23:24:00,17.8,5.2,30.18,WNW,293,7.0,9.0,57,0.00,,---,0.00,VWS V14.01,2013-01-24 04:24:00,
2013-01-23 23:26:00,17.7,4.7,30.18,NNE,15,8.0,9.0,56,0.00,,---,0.00,VWS V14.01,2013-01-24 04:26:00,
2013-01-23 23:27:00,17.7,4.7,30.18,NNW,339,6.0,9.0,56,0.00,,---,0.00,VWS V14.01,2013-01-24 04:27:00,
2013-01-23 23:29:00,17.7,4.7,30.18,SW,233,6.0,9.0,56,0.00,,---,0.00,VWS V14.01,2013-01-24 04:29:00,
2013-01-23 23:30:00,17.7,4.7,30.18,NW,315,3.0,9.0,56,0.00,,---,0.00,VWS V14.01,2013-01-24 04:30:00,
2013-01-23 23:31:00,17.7,4.7,30.18,North,8,2.0,6.0,56,0.00,,---,0.00,VWS V14.01,2013-01-24 04:31:00,
2013-01-23 23:32:00,17.7,4.7,30.18,NW,322,4.0,6.0,56,0.00,,---,0.00,VWS V14.01,2013-01-24 04:32:00,
2013-01-23 23:34:00,17.7,4.7,30.18,NNW,332,2.0,8.0,56,0.00,,---,0.00,VWS V14.01,2013-01-24 04:34:00,
2013-01-23 23:37:00,17.7,4.7,30.18,NW,315,4.0,8.0,56,0.00,,---,0.00,VWS V14.01,2013-01-24 04:37:00,
2013-01-23 23:39:00,17.6,4.6,30.18,WNW,288,3.0,8.0,56,0.00,,---,0.00,VWS V14.01,2013-01-24 04:39:00,
2013-01-23 23:42:00,17.6,4.6,30.18,WNW,285,1.0,8.0,56,0.00,,---,0.00,VWS V14.01,2013-01-24 04:42:00,
2013-01-23 23:43:00,17.6,4.6,30.18,NNE,31,2.0,8.0,56,0.00,,---,0.00,VWS V14.01,2013-01-24 04:43:00,
2013-01-23 23:45:00,17.6,4.6,30.18,NE,47,2.0,8.0,56,0.00,,---,0.00,VWS V14.01,2013-01-24 04:45:00,
2013-01-23 23:47:00,17.7,4.7,30.18,NW,321,6.0,8.0,56,0.00,,---,0.00,VWS V14.01,2013-01-24 04:47:00,
2013-01-23 23:48:00,17.7,4.7,30.18,NNW,336,1.0,8.0,56,0.00,,---,0.00,VWS V14.01,2013-01-24 04:48:00,
2013-01-23 23:50:00,17.7,4.7,30.18,NW,322,3.0,8.0,56,0.00,,---,0.00,VWS V14.01,2013-01-24 04:50:00,
2013-01-23 23:52:00,17.7,4.7,30.17,NW,321,4.0,8.0,56,0.00,,---,0.00,VWS V14.01,2013-01-24 04:52:00,
2013-01-23 23:53:00,17.7,4.7,30.17,East,82,2.0,8.0,56,0.00,,---,0.00,VWS V14.01,2013-01-24 04:53:00,
2013-01-23 23:56:00,17.7,4.7,30.17,South,186,1.0,8.0,56,0.00,,---,0.00,VWS V14.01,2013-01-24 04:56:00,
2013-01-23 23:58:00,17.8,4.8,30.17,NNE,25,1.0,8.0,56,0.00,,---,0.00,VWS V14.01,2013-01-24 04:58:00,
2013-01-23 23:59:00,17.8,4.8,30.17,NW,312,0.0,8.0,56,0.00,,---,0.00,VWS V14.01,2013-01-24 04:59:00,